Location: Ailingen
(47.6833°N, 9.5000°E)
Time: 13:50:18
(UTC+00:00)

IGS 5A - Pass Details

Date: 18 November 2025
Orbit: 549 x 559 km, 97.4° (Epoch: 02 December)

Event Time Altitude Azimuth Distance (km) Brightness Sun altitude
Rises 16:42:56 0° 178° (S) 2,711 7.1 -10.3°
Reaches altitude 10° 16:45:05 10° 184° (S) 1,821 6.2 -10.6°
Maximum altitude 16:48:56 51° 261° (W) 701 4.3 -11.2°
Drops below altitude 10° 16:52:48 10° 338° (NNW) 1,834 6.1 -11.9°
Sets 16:54:59 0° 343° (NNW) 2,733 6.9 -12.2°
